Вернуться в каталог

FENGYUNG-4C

АктивенПогодаGEO
NORAD 67246·PAYLOAD·🇨🇳 China

Запущен Dec 26, 2025 с Xichang Satellite Launch Center

Loading…

TLE

СвежийSource: Space-Track

Эпоха: Sep 14, 2026, 14:26 UTC

1 67246U 25312A   26257.60144779 -.00000331  00000-0  00000-0 0  9996
2 67246   0.0397 324.3858 0000433 325.9218  52.8048  1.00272405  2762

Отслеживайте FENGYUNG-4C в реальном времени с AllMySat

Download on the App Store